Flag for U.S.A. Weather past 2 weeks in Atascadero, California, U.S.A.

Now
60 °F

Passing clouds.


Feels Like: 60 °F
Forecast: 58 / 81 °F
Wind: 8 mph from Northwest

Location: Paso Robles Municipal Airport

Current Time: Aug 3, 2015 at 6:22:50 AM

Latest Report: Aug 3, 2015 at 5:53 AM


Visibility: 10 mi

Pressure: 29.93 "Hg

Humidity: 83%

Dew point: 55 °F

Location of AtascaderoLocation

Historic Weather in Atascadero — Graph

°F

Atascadero temperature yesterday

Maximum temperature yesterday: 92 °F (at 2:53 PM)
Minimum temperature yesterday: 59 °F (at 5:53 AM)
Average temperature yesterday: 73 °F

Past Weeks' High & Low Weather Summary

 TemperatureHumidityPressure
High101 °F (Jul 30, 1:53 PM)97% (Jul 26, 6:53 AM)30.09 "Hg (Jul 26, 6:53 AM)
Low55 °F (Jul 27, 4:53 AM)10% (Jul 27, 2:53 PM)29.77 "Hg (Jul 28, 4:53 PM)
Average73 °F58%29.93 "Hg
* Reported Jul 19 4:01 AM — Aug 3 4:53 AM, Atascadero, Weather by CustomWeather, © 2015

Note: Actual official high and low records may vary slightly from our data, if they occured in-between our weather recording intervals... More about our weather records

Advertising

Atascadero weather history for previous 24 hours

 ConditionsComfort  
Time TempWeatherWind HumidityBarometerVisibility
4:53 AM
Mon, Aug 3
60 °FClear.7 mph83%29.92 "Hg10 mi
3:53 AM60 °FClear.6 mph83%29.90 "Hg10 mi
2:53 AM61 °FClear.9 mph81%29.89 "Hg10 mi
1:53 AM62 °FClear.10 mph75%29.90 "Hg10 mi
12:53 AM63 °FClear.12 mph73%29.90 "Hg10 mi
11:53 PM
Sun, Aug 2
65 °FClear.10 mph66%29.90 "Hg10 mi
10:53 PM67 °FClear.12 mph59%29.89 "Hg10 mi
9:53 PM69 °FClear.10 mph57%29.89 "Hg10 mi
8:53 PM73 °FSunny.13 mph44%29.86 "Hg10 mi
7:53 PM77 °FSunny.10 mph42%29.84 "Hg10 mi
6:53 PM84 °FSunny.10 mph31%29.82 "Hg10 mi
5:53 PM83 °FSunny.16 mph37%29.81 "Hg10 mi
4:53 PM86 °FSunny.20 mph35%29.81 "Hg10 mi
3:53 PM90 °FSunny.17 mph33%29.82 "Hg10 mi
2:53 PM92 °FSunny.14 mph29%29.84 "Hg10 mi
1:53 PM91 °FSunny.6 mph28%29.86 "Hg10 mi
12:53 PM87 °FSunny.5 mph32%29.89 "Hg10 mi
11:53 AM81 °FSunny.6 mph39%29.91 "Hg10 mi
10:53 AM76 °FSunny.6 mph48%29.93 "Hg10 mi
9:53 AM72 °FSunny.7 mph57%29.95 "Hg10 mi
8:53 AM66 °FSunny.7 mph73%29.96 "Hg10 mi
7:53 AM63 °FSunny.9 mph81%29.95 "Hg10 mi
6:53 AM60 °FClear.7 mph90%29.94 "Hg10 mi
Weather by CustomWeather, © 2015

See weather overviewHow to use our weather pages